Location: City of Moscow
(46.7306°N, 116.9989°W)
Time: 03:26:25
(UTC+00:00)

USA 234 - Pass Details

Date: 14 March 2026
Orbit: 1102 x 1106 km, 123.0° (Epoch: 4 January)

Event Time Altitude Azimuth Distance (km) Brightness Sun altitude
Exits shadow 06:18:13 33° 289° (WNW) 1,780 4.6 -40.8°
Drops below altitude 10° 06:21:40 10° 303° (WNW) 2,969 6.1 -41.1°
Sets 06:24:12 0° 307° (NW) 3,930 6.9 -41.4°
